Regional Weather Roundup
Issued by NWS Wakefield, VA

Home | Current Version | Previous Version | Graphics & Text | Print | Product List | Glossary On
Versions: 1 2 3 4 5 6 7 8 9 10 11 12 13 14 15 16 17 18 19 20 21 22 23 24 25 26 27
000
ASUS41 KAKQ 290015
RWRAKQ

REGIONAL WEATHER ROUNDUP
NATIONAL WEATHER SERVICE WAKEFIELD VA
800 PM EDT WED SEP 28 2016

Note: "fair" indicates few or no clouds below 12,000 feet with no
significant weather and/or obstructions to visibility. * = Denotes
station may not report precipitation (e.g., rain,snow,etc.),
thunder or fog.

VAZ042-051-052>054-056-290100-
NORTHERN VIRGINIA

CITY           SKY/WX    TMP DP  RH WIND       PRES   REMARKS
WASH NATIONAL  CLOUDY    70  68  93 E13       30.02S
DULLES         CLOUDY    67  65  93 E8        30.01S
FORT BELVOIR   CLOUDY    69  66  91 VRB2      30.00S
QUANTICO       CLOUDY    70  67  90 E9        30.01R
FREDERICKSBRG* LGT RAIN  70  70 100 CALM      29.99R
STAFFORD*      CLOUDY    69  68  97 E6        30.03R
WARRENTON      CLOUDY    68  64  85 NE6       29.99R
CULPEPER*      CLOUDY    68  68  99 NE3       30.01R
MANASSAS*      CLOUDY    70  70 100 E5        30.00S
LEESBURG*      CLOUDY    66  66 100 CALM      30.03S FOG
WINCHESTER     CLOUDY    63  63 100 NE3       30.02R
FRONT ROYAL*   CLOUDY    63  63 100 N3        30.00S
LURAY*         CLOUDY    64  64 100 N8        30.00R
$$

VAZ048-049-060>072-079>083-290100-
CENTRAL AND SOUTH CENTRAL VIRGINIA

CITY           SKY/WX    TMP DP  RH WIND       PRES   REMARKS
RICHMOND       TSTM      67  67 100 SW9       30.02R FOG
CHESTERFIELD*  CLOUDY    68  54  60 E3        29.99R THUNDER
PETERSBURG*    LGT RAIN  71  67  87 NW9       29.98R
HANOVER        NOT AVBL
TAPPAHANNOCK*  RAIN      69  69 100 SE7       30.01R
QUINTON*       CLOUDY    67  66  95 N12G17    29.98R FOG
CHARLOTTSVILLE CLOUDY    67  64  90 E6        29.99R HAZE
GORDONSVILLE*  NOT AVBL
ORANGE*        NOT AVBL
LOUISA*        CLOUDY    72  70  94 NE3       29.98R
BUMPASS*       CLOUDY    67  67 100 E3        29.98R
FARMVILLE*     CLOUDY    70  69  97 NE3       29.96R
CREWE*         CLOUDY    70  70 100 CALM      29.97R
FORT PICKETT*  CLOUDY    71  68  88 NE3       29.97R
CHASE CITY*    MOCLDY    70  68  94 SE5       29.95F
CLARKSVILLE*   CLOUDY    68  68 100 SW10      29.97R
SOUTH HILL*    CLOUDY    72  71  95 CALM      30.02R
LAWRENCEVILLE* CLOUDY    73  69  89 CALM      29.97R
EMPORIA*         N/A     70  68  94 CALM      29.98R
$$

VAZ088>098-290100-
SOUTHEAST VIRGINIA

CITY           SKY/WX    TMP DP  RH WIND       PRES   REMARKS
NORFOLK        CLOUDY    75  70  84 SE7       29.97R
VIRGINIA BEACH MOCLDY    74  69  85 SE10      29.97S
NORFOLK NAVAL  CLOUDY    76  69  79 SE10      30.00R
WEST POINT*    CLOUDY    68  66  93 E6        30.02R
SALUDA*        CLOUDY    69  67  93 N9        30.01R
NEWPORT NEWS   CLOUDY    75  70  84 E8        29.99R
LANGLEY AFB    CLOUDY    75  71  87 SE10      29.99R
FORT EUSTIS    CLOUDY    73  69  85 SE8       29.97R
WILLIAMSBURG*  CLOUDY    73  70  88 CALM      30.00R
HR EXEC AP*    FAIR      73  66  78 SE6       30.00R
FRANKLIN*      CLOUDY    73  70  91 SE5       29.98R
US460-WAKEFLD  CLOUDY    72  70  93 E5        29.97R
$$

VAZ020-022-025-037-045-290100-
WEST CENTRAL AND SOUTHWEST VIRGINIA

CITY           SKY/WX    TMP DP  RH WIND       PRES   REMARKS
STAUNTON*      CLOUDY    66  62  86 NE7       30.02R
WAYNESBORO*    CLOUDY    64  62  92 E3        30.00R
HOT SPRINGS VA LGT RAIN  61  61 100 E8        30.04R VSB<1/4
LYNCHBURG      CLOUDY    67  63  87 NE5       29.97R
DANVILLE       LGT RAIN  67  66  97 SE5       29.94R FOG
SOUTH BOSTON*  FAIR      68  67  96 CALM      29.93F
MARTINSVILLE   CLOUDY    69  65  89 E3        29.97R
ROANOKE        CLOUDY    68  65  90 CALM      29.96R
BLACKSBURG     MOCLDY    65  65  97 E7        30.00R
DUBLIN*        PTCLDY    66  64  93 E5        29.96S
MARION*        PTCLDY    65  57  75 CALM      29.99R
HILLSVILLE*    MOCLDY    65  65  98 CALM      29.97R
RICHLANDS*     FAIR      66  47  49 SE3       29.96S
WISE*          CLEAR     63  34  34 SW8       29.97R
ABINGDON*      CLEAR     66  48  51 CALM      29.94S
$$

MDZ021>025-VAZ099-100-290100-
SOUTHERN MARYLAND AND THE DELMARVA PENINSULA

CITY           SKY/WX    TMP DP  RH WIND       PRES   REMARKS
PATUXENT RIVER TSTM      69  67  93 NE14      30.01S
BAY BRIDGE APT RAIN      68  66  94 MISG      30.05R FOG
LEONARDTOWN    CLOUDY    68  66  94 E7        30.04R
DOVER          LGT RAIN  66  66 100 NE15G24   30.09  FOG
GEORGETOWN     LGT RAIN  69  68  96 E12       30.07R FOG
EASTON         LGT RAIN  70  66  88 SE10      30.10R
CAMBRIDGE      CLOUDY    68  66  94 NE5       30.05R
SALISBURY      CLOUDY    71  69  93 E10       30.04R
OCEAN CITY     CLOUDY    73  69  87 E16G24    30.04S
WALLOPS ISLAND CLOUDY    73  72  96 E13       30.03R
ACCOMACK*      CLOUDY    73  69  87 E7        30.01R
$$

NCZ012>017-030>032-290100-
NORTH CENTRAL AND EASTERN NORTH CAROLINA

CITY           SKY/WX    TMP DP  RH WIND       PRES   REMARKS
ROANOKE RAPIDS FAIR      70  70 100 S3        29.95S
RALEIGH        MOCLDY    71  67  87 N3        29.95S
ELIZABETH CITY PTCLDY    75  69  81 SE8       29.98S
AHOSKIE*       CLOUDY    73  72  97 CALM      29.97R
EDENTON*       PTCLDY    78  69  73 SE6       29.98R
CURRITUCK*     NOT AVBL
KILL DEVIL HLS PTCLDY    74  73  93 SE5       29.98R
MANTEO         NOT AVBL
CAPE HATTERAS  CLEAR     75  71  87 E6        30.00R
TARBORO*       FAIR      75  73  96 CALM      29.97R FOG
GOLDSBORO      CLOUDY    78  73  85 S2        29.96R
WASHINGTON     CLEAR     75  70  85 SE5       29.98R
GREENVILLE     CLOUDY    79  72  78 S8        29.99R
NEW BERN       CLEAR     76  70  82 CALM      30.00R
WILMINGTON     PTCLDY    77  70  79 S3        29.98R
$$

VAZ048-290100-
ELSEWHERE

CITY           SKY/WX    TMP DP  RH WIND       PRES   REMARKS
HARRISBURG PA  CLOUDY    66  64  93 E10       30.06F
BALTIMORE      CLOUDY    68  66  93 E14       30.05R
ANNAPOLIS      CLOUDY    71  68  90 E14G21    30.05R
ANDREWS AFB    CLOUDY    68  66  94 E13       30.02R
PHILADELPHIA   LGT RAIN  64  59  83 E16G23    30.13R
HENDERSON NC   LGT RAIN  70  66  85 S8        29.96R
GREENSBORO     TSTM      69  69 100 SE8       29.93R VSB 1
ROCKY MOUNT    MOCLDY    73  73 100 CALM      29.96R
$$

VAZ100-290100-
MARINE

STATION/POSITION TIME  TEMP    WIND        PRES    WAVE   SWELL
                       AIR SEA DIR/SP/G            HT/PER HT/PER
                 (UTC) (F)     (DEG/KT/KT) (MB)    (FT/S) (FT/S)
BRANDYWINE LGT   2348           80/ 23/ 26   N/A
CAPE MAY NJ      2348      71   60/ 11/ 20 1018.1R
LEWES DE         2348      71   90/ 22/ 26 1017.8R
OCEAN-CITY-INLET 2348      73   90/ 12/ 19 1017.5S
WACHAPREAGUE VA  2348      75   80/ 12/ 15 1016.4R
THOMAS POINT MD  0000   69 73   70/ 17/ 20 1018.3F
GOOSES REEF MD   2350   71     110/ 19/ 23 1016.9F
COVE POINT MD    2348           90/ 17/ 21 1017.1F
SOLOMONS ISLAND  2348      74   60/ 14/ 18   N/A
BISHOPS HEAD MD  2348      71   60/  9/ 11 1017.1R
PINEY POINT MD   2348          100/ 11/ 13   N/A
POTOMAC MD       2350   72     100/ 16/ 19 1015.1R
CAMBRIDGE MD     2348      73   40/ 13/ 16 1016.4R
LEWISETTA VA     2348      73  120/ 17/ 20 1015.6R
RAPPAHANNOCK LGT 2348           90/ 14/ 16 1016.2R
STINGRAY PT      2350   75      60/ 16/ 19 1015.9R
YORK RVR RNG VA  2348          150/ 16/ 20 1014.8R
YORKTOWN VA      2348      76  130/  8/ 13 1015.1R
JAMESTOWN VA     2350   75     100/  8/ 12   N/A
DOMINION TERM VA 2348          130/ 14/ 17 1015.1R
KIPTOPEKE VA     2348      76  120/ 11/ 14   N/A
CHES BAY BRIDGE  2348      76  100/  8/ 13 1014.9R
CAPE HENRY VA    2348          130/ 13/ 17   N/A
WILLOUBY STN VA  2348           90/  7/  9   N/A
CAPE HENRY BUOY  2342      76                N/A     3/ 7   2/11
1ST LANDING BUOY 2350   76     150/ 17/ 19 1014.6R
CAPE CHARLES BUO 2326      77                N/A     4/ 8   2/11
OFFSHORE WE BUOY 2321      76                N/A     4/ 7   2/11
64NM E OF VA BCH 2350   76 75  120/  4/  6 1015.5R   5/ 7   5/ 7
DUCK PIER NC     2348      78  130/ 12/ 13 1014.9R
44056 DUCK FRF   2341      77                N/A     3/11   2/11
OREGON INLET NC  2348      79  120/  4/  6 1015.8R
HATTERAS NC      2348      78  100/  6/  9 1015.4R
DIAMOND SHLS NC  2350   80 84  120/  6/  8 1015.7R   4/ 7   3/ 7
CAPE LOOKOUT NC  0000   80     140/  8/  9 1015.4R
$$




USA.gov is the U.S. government's official web portal to all federal, state and local government web resources and services.